288  
NZUS59 KLOT 202008  
HRRLOT  
 
CHICAGO AREA WEATHER ROUNDUP  
NATIONAL WEATHER SERVICE CHICAGO/ROMEOVILLE IL  
200 PM CST MON NOV 20 2017  
 
NOTE: "FAIR" INDICATES FEW OR NO CLOUDS BELOW 12,000 FEET WITH NO  
SIGNIFICANT WEATHER AND/OR OBSTRUCTIONS TO VISIBILITY.  
 
* THESE STATIONS ARE NOT UNDER NWS QUALITY CONTROL. THEY ALSO MAY NOT  
REPORT WEATHER SUCH AS PRECIPITATION OR FOG.  
 
ILZ005-006-012>014-019>023-202100-  
NORTHEAST ILLINOIS  
 
CITY SKY/WX TMP DP RH WIND PRES REMARKS  
OHARE MOSUNNY 51 32 48 SW22 29.78F  
MIDWAY MOSUNNY 53 32 44 SW18G26 29.80F  
AURORA SUNNY 52 34 50 S16 29.80F  
LANSING* SUNNY 51 37 57 SW21G26 29.84F  
JOLIET* SUNNY 54 34 47 SW15G23 29.82F  
WAUKEGAN CLOUDY 51 32 48 SW18 29.73F  
DUPAGE AIRPORT SUNNY 51 33 50 S17G28 29.78F  
WHEELING SUNNY 53 31 42 SW16G24 29.78F  
KANKAKEE* SUNNY 52 33 47 SW20G30 29.88S  
MORRIS* SUNNY 53 35 50 SW21G28 29.81F  
LEWIS AIRPORT* SUNNY 52 34 50 SW18G33 29.81F  
NORTHERLY ISL N/A 52 29 41 S17 N/A  

 
 
WIZ051-052-058>065-066-070>072-202100-  
SOUTHEAST WISCONSIN  
 
CITY SKY/WX TMP DP RH WIND PRES REMARKS  
MILWAUKEE PTSUNNY 50 32 50 SW21G28 29.70F  
KENOSHA* CLOUDY 50 31 48 SW20G32 29.72F  
RACINE* CLOUDY 50 32 50 SW16G29 29.72F  
BURLINGTON CLOUDY 53 37 56 S20G28 29.71F  
WAUKESHA SUNNY 46 30 53 S12G21 29.69F  
WEST BEND SUNNY 50 30 46 S10G21 29.65F  

 
 
INZ001>003-010>013-019-020-202100-  
NORTHWEST INDIANA  
 
CITY SKY/WX TMP DP RH WIND PRES REMARKS  
GARY* MOSUNNY 54 30 40 SW18G35 29.84F  
MICHIGAN CITY* NOT AVBL  
RENSSELAER* NOT AVBL  
VALPARAISO SUNNY 53 33 46 S23G31 29.86F  

 
 
LMZ740>746-202100-  
SOUTHERN LAKE MICHIGAN  
 
STATION/POSITION TIME SKY/WX TEMP WIND PRES VSBY  
AIR DIR/SP/G  
(UTC) (F) (DEG/KT/KT) (MB) (MI)  
HARRISON CRIB 1940 51 220/ 23/ 27 N/A  
BURNHAM HARBOR 2000 52 190/ 14/ 20 N/A  
CALUMET HARBOR 1948 51 190/ 14/ 22 1009.0F  
BURNS HARBOR 1940 51 220/ 21/ 28 1010.8F  
MICHIGAN CITY 1940 50 190/ 24/ 27 N/A  

 
 
ABBREVIATIONS USED IN REMARKS  
TC - TEMPERATURE IN CELSIUS  
WCI - WIND CHILL INDEX  
HX - HEAT INDEX  
VSB - VISIBILITY  

 
 
 
CLICK HERE TO GO TO PREVIOUS BULLETINS.

The Nexlab IL Page
The Nexlab IN Page Main Text Page